Flag for Austria Weather past 2 weeks in Bruck an der Mur, Styria, Austria

Now
45 °F

Partly cloudy.


Feels Like: 45 °F
Forecast: 36 / 54 °F
Wind: 1 mph from North

Location: Zeltweg

Current Time: Mar 29, 2015 at 10:27:51 PM

Latest Report: Mar 29, 2015 at 9:50 PM


Visibility: 6 mi

Pressure: 29.68 "Hg

Humidity: 71%

Dew point: 36 °F

Location of Bruck an der MurLocation

Historic Weather in Bruck an der Mur — Graph

°F

Bruck an der Mur temperature yesterday

Maximum temperature yesterday: 48 °F (at 12:50 PM)
Minimum temperature yesterday: 32 °F (at 9:50 PM)
Average temperature yesterday: 43 °F

Past Weeks' High & Low Weather Summary

 TemperatureHumidityPressure
High61 °F (Mar 21, 2:50 PM)100% (Mar 16, 5:50 AM)30.45 "Hg (Mar 16, 5:50 AM)
Low23 °F (Mar 20, 4:50 AM)23% (Mar 19, 4:50 PM)29.68 "Hg (Mar 25, 3:50 PM)
Average44 °F64%30.06 "Hg
* Reported Mar 14 7:50 PM — Mar 29 8:50 PM, Bruck an der Mur, Weather by CustomWeather, © 2015

Note: Actual official high and low records may vary slightly from our data, if they occured in-between our weather recording intervals... More about our weather records

Advertising

Bruck an der Mur weather history for previous 24 hours

 ConditionsComfort  
Time TempWeatherWind HumidityBarometerVisibility
8:50 PM
Sun, Mar 29
46 °FPartly cloudy.6 mph76%29.68 "Hg6 mi
7:50 PM48 °FOvercast.5 mph71%29.68 "Hg19 mi
6:50 PM52 °FPartly sunny.2 mph67%29.68 "Hg31 mi
5:50 PM54 °FMore clouds than sun.6 mph51%29.68 "Hg31 mi
4:50 PM55 °FPartly sunny.5 mph44%29.71 "Hg31 mi
3:50 PM57 °FPartly sunny.5 mph44%29.74 "Hg31 mi
2:50 PM55 °FPartly sunny.3 mph51%29.74 "Hg31 mi
1:50 PM54 °FBroken clouds.2 mph51%29.80 "Hg31 mi
12:50 PM48 °FPartly sunny.1 mph58%29.83 "Hg25 mi
11:50 AM48 °FBroken clouds.2 mph58%29.83 "Hg25 mi
10:50 AM41 °FBroken clouds.2 mph66%29.86 "Hg25 mi
9:50 AM37 °FScattered clouds.2 mph75%29.92 "Hg16 mi
8:50 AM34 °FPassing clouds.2 mph87%29.92 "Hg12 mi
7:50 AM32 °FPartly sunny.1 mph80%29.92 "Hg12 mi
6:50 AM32 °FPartly cloudy.1 mph87%29.92 "Hg12 mi
5:50 AM32 °FPartly cloudy.3 mph87%29.92 "Hg9 mi
Weather by CustomWeather, © 2015

See weather overviewHow to use our weather pages